Location: Centerville
(32.8776°N, 96.6203°W)
Time: 20:00:57
(UTC+00:00)

Delta 128 - Pass Details

Date: 31 October 2021
Orbit: 608 x 1216 km, 28.0° (Epoch: 27 November)

Event Time Altitude Azimuth Distance (km) Brightness Sun altitude
Exits shadow 10:49:19 - 203° (SSW) 3,881 7.4 -24.5°
Reaches altitude 10° 10:53:01 10° 185° (S) 3,071 7.1 -23.7°
Maximum altitude 10:57:29 16° 149° (SSE) 2,673 7.1 -22.8°
Drops below altitude 10° 11:02:02 10° 114° (ESE) 3,153 8.1 -21.8°
Sets 11:06:11 0° 95° (E) 4,106 9.3 -21.0°
